Find Starlink 4177

NORAD ID: 53013 Int'l Des: 2022-076 Owner: SPXS Country: US Constellation: starlink operational
LEOCIRCULAR

現在のビュー

3D地球を読み込み中...

Starlink 4177について

説明を読み込み中...

次回通過

Passes for default location (London). Set your location on the main map for personalized predictions.

高度履歴

Loading altitude history...

軌道要素

1 53013U 22076AD 26150.03679826 -.00000773 00000-0 -30455-4 0 9994
2 53013 53.1997 78.9322 0001618 91.6879 268.4298 15.08831296215263
Epoch: May 30, 2026 • Age: 15 hours

現在のステータス

高度 544.1 km
速度 7.59 km/s
衛星直下点 -15.13°S, 138.48°E
打ち上げ日 Jul 7, 2022
運用期間 3.8 years
タイプ internet

技術仕様

分類 Payload
質量 297.00 kg
乾燥質量 275.00 kg
総質量 297.00 kg
長さ 0.20 m
直径 2.80 m
スパン 9.00 m
形状 Box + pan
製造者 SPXS
バスタイプ Starlink
フェーズステータス In Orbit
所有者/国 SPXS/US

Most Searched